When you browse on this site, cookies collect data to enhance your experience and personalize the content and advertising you see.
Visit our Privacy Policy to learn more. By continuing to use the site, you agree to this use of cookies and data.

Hourly Weather Wucheng

Today, 10 July, Friday

Time Temperature Precipitation Wind Pressure Humidity
00:00 +24°C° 0.2 mm 0 mps 730 mmHg 97%
01:00 +24°C° 0.2 mm 0 mps 730 mmHg 97%
02:00 +24°C° 0 mm 0 mps 730 mmHg 98%
03:00 +24°C° 0.1 mm 0 mps 730 mmHg 98%
04:00 +23°C° 0.1 mm 0 mps 730 mmHg 98%
05:00 +23°C° 0.1 mm 0 mps 730 mmHg 98%
06:00 +24°C° 0 mm 0 mps 730 mmHg 97%
07:00 +24°C° 0 mm 0 mps 731 mmHg 97%
08:00 +25°C° 0 mm 0 mps 731 mmHg 96%
09:00 +26°C° 1.2 mm 0 mps 731 mmHg 96%
10:00 +28°C° 1.2 mm 1 mps 731 mmHg 95%
11:00 +29°C° 1.2 mm 1 mps 731 mmHg 94%
12:00 +28°C° 2.2 mm 1 mps 731 mmHg 95%
13:00 +28°C° 2.2 mm 1 mps 731 mmHg 96%
14:00 +26°C° 0 mm 1 mps 731 mmHg 98%
15:00 +26°C° 1.1 mm 1 mps 731 mmHg 98%
16:00 +26°C° 1.1 mm 1 mps 731 mmHg 98%
17:00 +26°C° 1.1 mm 1 mps 731 mmHg 98%
18:00 +26°C° 0.5 mm 1 mps 731 mmHg 98%
19:00 +26°C° 0.5 mm 1 mps 732 mmHg 98%
20:00 +24°C° 0.5 mm 0 mps 732 mmHg 98%
21:00 +26°C° 0.5 mm 1 mps 732 mmHg 98%
22:00 +26°C° 0.5 mm 1 mps 732 mmHg 98%
23:00 +26°C° 0.5 mm 1 mps 733 mmHg 98%

Tomorrow, 11 July, Saturday

Time Temperature Precipitation Wind Pressure Humidity
00:00 +23°C° 0.2 mm 0 mps 732 mmHg 98%
01:00 +23°C° 0.2 mm 0 mps 732 mmHg 98%
02:00 +23°C° 0.2 mm 0 mps 732 mmHg 97%
03:00 +23°C° 1 mm 0 mps 732 mmHg 98%
04:00 +25°C° 1 mm 1 mps 732 mmHg 98%
05:00 +25°C° 1 mm 1 mps 732 mmHg 98%
06:00 +26°C° 0.1 mm 1 mps 732 mmHg 97%
07:00 +26°C° 0.1 mm 1 mps 732 mmHg 95%
08:00 +27°C° 0.1 mm 1 mps 732 mmHg 94%
09:00 +28°C° 0.2 mm 1 mps 733 mmHg 89%
10:00 +29°C° 0.2 mm 1 mps 733 mmHg 85%
11:00 +30°C° 0.2 mm 1 mps 733 mmHg 80%
12:00 +31°C° 0.6 mm 1 mps 733 mmHg 80%
13:00 +31°C° 0.6 mm 1 mps 732 mmHg 80%
14:00 +31°C° 0.6 mm 1 mps 732 mmHg 80%
15:00 +31°C° 0.5 mm 1 mps 732 mmHg 82%
16:00 +30°C° 0.5 mm 1 mps 732 mmHg 85%
17:00 +30°C° 0.5 mm 1 mps 732 mmHg 87%
18:00 +29°C° 1.2 mm 1 mps 732 mmHg 90%
19:00 +26°C° 1.2 mm 0 mps 732 mmHg 92%
20:00 +25°C° 1.2 mm 0 mps 733 mmHg 94%
21:00 +25°C° 0.2 mm 0 mps 733 mmHg 94%
22:00 +27°C° 0.2 mm 1 mps 733 mmHg 95%
23:00 +27°C° 0.2 mm 1 mps 733 mmHg 95%

Day after tomorrow, 12 July, Sunday

Time Temperature Precipitation Wind Pressure Humidity
00:00 +26°C° 0 mm 1 mps 733 mmHg 95%
01:00 +26°C° 0 mm 1 mps 733 mmHg 95%
02:00 +26°C° 0 mm 1 mps 732 mmHg 94%
03:00 +26°C° 0 mm 1 mps 732 mmHg 95%
04:00 +26°C° 0 mm 1 mps 732 mmHg 95%
05:00 +26°C° 0 mm 1 mps 732 mmHg 95%
06:00 +27°C° 0 mm 1 mps 733 mmHg 92%
07:00 +28°C° 0 mm 1 mps 733 mmHg 88%
08:00 +30°C° 0 mm 1 mps 733 mmHg 85%
09:00 +31°C° 0 mm 2 mps 733 mmHg 76%
10:00 +34°C° 0 mm 3 mps 733 mmHg 67%
11:00 +35°C° 0 mm 4 mps 733 mmHg 58%
12:00 +36°C° 0 mm 4 mps 733 mmHg 56%
13:00 +36°C° 0 mm 5 mps 732 mmHg 54%
14:00 +37°C° 0 mm 5 mps 732 mmHg 53%
15:00 +36°C° 0 mm 4 mps 732 mmHg 58%
16:00 +35°C° 0 mm 4 mps 732 mmHg 63%
17:00 +35°C° 0 mm 3 mps 732 mmHg 69%
18:00 +32°C° 0.2 mm 2 mps 732 mmHg 76%
19:00 +30°C° 0.2 mm 2 mps 732 mmHg 83%
20:00 +28°C° 0.2 mm 1 mps 733 mmHg 90%
21:00 +28°C° 0 mm 1 mps 733 mmHg 90%
22:00 +28°C° 0 mm 1 mps 733 mmHg 90%
23:00 +28°C° 0 mm 1 mps 733 mmHg 90%

13 July, Monday

Time Temperature Precipitation Wind Pressure Humidity
00:00 +27°C° 0.1 mm 1 mps 733 mmHg 90%
01:00 +27°C° 0.1 mm 1 mps 733 mmHg 91%
02:00 +27°C° 0.1 mm 1 mps 733 mmHg 92%
03:00 +27°C° 0.2 mm 1 mps 733 mmHg 91%
04:00 +27°C° 0.2 mm 1 mps 733 mmHg 91%
05:00 +27°C° 0.2 mm 1 mps 733 mmHg 91%
06:00 +28°C° 0.1 mm 1 mps 733 mmHg 89%
07:00 +29°C° 0.1 mm 1 mps 733 mmHg 86%
08:00 +30°C° 0.1 mm 1 mps 733 mmHg 83%
09:00 +30°C° 0.5 mm 2 mps 734 mmHg 82%
10:00 +31°C° 0.5 mm 2 mps 734 mmHg 80%
11:00 +33°C° 0.5 mm 3 mps 734 mmHg 79%
12:00 +32°C° 0.7 mm 2 mps 734 mmHg 81%
13:00 +31°C° 0.7 mm 2 mps 734 mmHg 82%
14:00 +31°C° 0.7 mm 2 mps 733 mmHg 84%
15:00 +30°C° 0.5 mm 2 mps 733 mmHg 87%
16:00 +29°C° 0.5 mm 1 mps 733 mmHg 90%
17:00 +28°C° 0.5 mm 1 mps 733 mmHg 93%
18:00 +28°C° 0.3 mm 1 mps 733 mmHg 94%
19:00 +27°C° 0.3 mm 1 mps 733 mmHg 94%
20:00 +27°C° 0.3 mm 1 mps 734 mmHg 95%
21:00 +25°C° 0 mm 0 mps 734 mmHg 94%
22:00 +25°C° 0 mm 0 mps 734 mmHg 94%
23:00 +25°C° 0 mm 0 mps 734 mmHg 93%

14 July, Tuesday

Time Temperature Precipitation Wind Pressure Humidity
00:00 +25°C° 0.3 mm 0 mps 734 mmHg 94%
01:00 +24°C° 0.3 mm 0 mps 733 mmHg 94%
02:00 +24°C° 0.3 mm 0 mps 733 mmHg 95%
03:00 +24°C° 0.6 mm 0 mps 733 mmHg 95%
04:00 +24°C° 0.6 mm 0 mps 733 mmHg 96%
05:00 +24°C° 0.6 mm 0 mps 733 mmHg 96%
06:00 +24°C° 0.7 mm 0 mps 733 mmHg 96%
07:00 +24°C° 0.7 mm 0 mps 734 mmHg 96%
08:00 +25°C° 0.7 mm 0 mps 734 mmHg 96%
09:00 +25°C° 0.8 mm 0 mps 734 mmHg 96%
10:00 +26°C° 0.8 mm 0 mps 734 mmHg 95%
11:00 +26°C° 0.8 mm 0 mps 734 mmHg 95%
12:00 +26°C° 0.6 mm 0 mps 733 mmHg 94%
13:00 +27°C° 0.6 mm 0 mps 733 mmHg 94%
14:00 +27°C° 0.6 mm 0 mps 733 mmHg 93%
15:00 +27°C° 0.8 mm 0 mps 733 mmHg 92%
16:00 +27°C° 0.8 mm 0 mps 732 mmHg 92%
17:00 +28°C° 0.8 mm 0 mps 732 mmHg 91%
18:00 +27°C° 0.3 mm 0 mps 732 mmHg 92%
19:00 +26°C° 0.3 mm 0 mps 733 mmHg 94%
20:00 +25°C° 0.3 mm 0 mps 733 mmHg 96%
21:00 +27°C° 0.1 mm 1 mps 733 mmHg 96%
22:00 +26°C° 0.1 mm 1 mps 733 mmHg 96%
23:00 +26°C° 0.1 mm 1 mps 733 mmHg 96%

15 July, Wednesday

Time Temperature Precipitation Wind Pressure Humidity
00:00 +24°C° 0.3 mm 0 mps 732 mmHg 96%
01:00 +24°C° 0.3 mm 0 mps 732 mmHg 96%
02:00 +23°C° 0.3 mm 0 mps 732 mmHg 97%
03:00 +23°C° 0.5 mm 0 mps 731 mmHg 97%
04:00 +23°C° 0.5 mm 0 mps 731 mmHg 97%
05:00 +23°C° 0.5 mm 0 mps 731 mmHg 97%
06:00 +24°C° 1.5 mm 0 mps 731 mmHg 97%
07:00 +24°C° 1.5 mm 0 mps 732 mmHg 97%
08:00 +24°C° 1.5 mm 0 mps 732 mmHg 98%
09:00 +24°C° 2.1 mm 0 mps 732 mmHg 98%
10:00 +24°C° 2.1 mm 0 mps 732 mmHg 98%
11:00 +26°C° 2.1 mm 1 mps 732 mmHg 98%
12:00 +24°C° 0.6 mm 0 mps 732 mmHg 98%
13:00 +25°C° 0.6 mm 0 mps 732 mmHg 97%
14:00 +25°C° 0.6 mm 0 mps 732 mmHg 96%
15:00 +25°C° 0.3 mm 0 mps 732 mmHg 96%
16:00 +25°C° 0.3 mm 0 mps 732 mmHg 95%
17:00 +25°C° 0.3 mm 0 mps 731 mmHg 95%
18:00 +25°C° 1.3 mm 0 mps 732 mmHg 96%
19:00 +24°C° 1.3 mm 0 mps 732 mmHg 97%
20:00 +24°C° 1.3 mm 0 mps 732 mmHg 97%
21:00 +24°C° 1.1 mm 0 mps 732 mmHg 98%
22:00 +24°C° 1.1 mm 0 mps 732 mmHg 98%
23:00 +23°C° 1.1 mm 0 mps 732 mmHg 98%
Show more